www.pogodaiklimat.ru

Погода и климат >> Архив погоды >> Россия >> Приморский край >> Гамов


ПОГОДА в Гамове

  • Прогноз погоды в Гамове
  • Монитор погоды в Гамове

АРХИВ ПОГОДЫ в Гамове

Время (UTC), дата Ветер
(напр.,м/с)
 
Видим.   Явления Облачность Т
(С)
Тd
(С)
f
(%)
Тe
(С)
Тes
(С)
Комфортность P
(гПа)
Po
(гПа)
Тmin
(С)
Tmax
(С)
R
(мм)
R24
(мм)
S
(см)
06 19.04 СВ 5 н/о н/о +8.0 +1.4 63 +5 1015.8 1009.3
09 19.04 СВ 7-11
{19}
н/о н/о +7.2 +2.5 72 +3 +3 1015.8 1009.3 +11.0
12 19.04 СВ 6 н/о н/о +6.3 +1.6 72 +2 1017.2 1010.7
15 19.04 СВ 2 н/о н/о +6.1 +0.2 66 +4 1017.3 1010.7
18 19.04 СВ 2 н/о н/о +7.9 -7.8 32 +7 1017.2 1010.7
21 19.04 СВ 3 н/о н/о +7.8 -8.4 31 +6 +6 1015.5 1010.4 +4.3
00 20.04 СВ 4 н/о н/о +7.0 -6.0 39 +4 1017.2 1010.7
03 20.04 СВ 3 н/о н/о +7.7 -9.2 29 +6 1015.8 1009.3
06 20.04 СВ 1 н/о н/о +7.0 +2.7 74 +6 1013.2 1006.7
09 20.04 СВ 8-11
{11}
н/о н/о +9.1 -0.8 50 +5 +5 1010.4 1004.0 +9.4
12 20.04 СВ 4 н/о н/о +5.7 +4.3 91 +2 1013.2 1006.7
15 20.04 н/о н/о +6.1 +4.3 88< 1013.2 1006.7
18 20.04 н/о н/о +10.7 +3.9 63< 1013.1 1006.7
21 20.04 СВ 2
{15}
н/о н/о +8.5 +2.6 66 +7 +7 1012.3 1007.2 +5.2
00 21.04 СВ 2 н/о н/о +10.7 +1.8 54 +10 1015.7 1009.3
03 21.04 СВ 2 н/о н/о +13.0 +1.3 45 +13 1015.7 1009.3
06 21.04 СВ 3 н/о н/о +13.2 -1.9 35 +12 1013.1 1006.7
09 21.04 СВ 7-10
{12}
н/о н/о +10.0 +0.6 52 +7 +7 1014.4 1008.0 +15.6
12 21.04 СВ 7-11
{17}
н/о н/о +10.1 -0.8 47 +7 +7 1013.3 1008.2
15 21.04 СВ 3 н/о н/о +13.0 -4.2 30 +12 1017.1 1010.7
18 21.04 СВ 1 н/о н/о +8.7 -3.8 41 +9 1018.5 1012.0
21 21.04 СВ 1 н/о н/о +6.7 -4.0 46 +6 +6 1017.8 1012.7 +6.0
00 22.04 СВ 2 н/о н/о +8.9 -2.7 44 +8 1021.2 1014.7
03 22.04 СВ 3 н/о н/о +13.3 -11.2 17 +13 1022.4 1016.0
06 22.04 СВ 2 н/о н/о +11.8 -4.8 31 +11 1019.7 1013.3
09 22.04 СВ 4 н/о н/о +9.4 -3.9 39 +7 +7 1018.5 1012.0 +14.0
12 22.04 СВ 6 н/о н/о +7.9 +1.3 63 +4 1019.8 1013.3
15 22.04 СВ 4 н/о н/о +7.4 +5.4 87 +4 1018.5 1012.0
21 22.04 В 6
{11}
н/о н/о +7.1 +7.1 100 +2 +2 1011.9 1006.9 +5.9
00 23.04 СВ 5 н/о н/о +7.4 +7.4 100 +3 1014.5 1008.0
03 23.04 СВ 1 н/о н/о +7.7 +7.7 100 +7 1014.5 1008.0
06 23.04 В 3 н/о н/о +6.7 +6.4 98 +3 1011.8 1005.3
09 23.04 СВ 3 н/о н/о +6.6 +6.6 100 +3 +3 1011.8 1005.3 +8.0
12 23.04 СВ 2 н/о н/о +7.2 +7.2 100 +5 1013.2 1006.7
15 23.04 СВ 2 н/о н/о +7.3 +7.3 100 +5 1013.2 1006.7
18 23.04 СВ 2 н/о н/о +7.5 +7.5 100 +5 1011.8 1005.3
21 23.04 СВ 3 н/о н/о +6.8 +6.9 100 +4 +4 1009.4 1004.4 +6.0
00 24.04 СВ 3 н/о н/о +9.8 +8.2 90 +7 1013.1 1006.7
06 24.04 СВ 2 н/о н/о +13.9 -0.9 36 +14 1013.1 1006.7
09 24.04 СВ 2 н/о н/о +8.3 +1.2 61 +7 +7 1013.2 1006.7 +15.1
12 24.04 СВ 2 н/о н/о +7.9 +0.6 60 +6 1014.5 1008.0
15 24.04 СВ 1 н/о н/о +8.1 -1.2 52 +8 1015.8 1009.3
18 24.04 В 4 н/о н/о +10.0 -13.9 17 +8 1014.5 1008.0
21 24.04 В 1
{10}
н/о н/о +8.2 -6.7 34 +8 +8 1013.7 1008.7 +6.3
00 25.04 В 2 н/о н/о +9.4 -8.2 28 +9 1017.2 1010.7
03 25.04 СВ 3 н/о н/о +8.3 -3.2 44 +6 1017.2 1010.7
06 25.04 штиль 0 н/о н/о +10.3 -3.8 37 +10 1015.8 1009.3
09 25.04 В 3 н/о н/о +7.8 -2.5 48 +6 +6 1015.8 1009.3 +11.2
12 25.04 В 5 н/о н/о +7.9 -0.3 56 +5 1017.2 1010.7
15 25.04 В 3 н/о н/о +9.0 -2.6 44 +7 1017.2 1010.7
18 25.04 В 3 н/о н/о +6.6 +0.7 66 +4 1015.8 1009.3
21 25.04 СВ 2 н/о н/о +5.2 +3.5 89 +3 +3 1015.7 1010.6 +5.0
00 26.04 В 5 н/о н/о +4.3 +3.6 95 -1 1019.9 1013.3 +4.1
03 26.04 СВ 2 н/о н/о +5.5 +3.7 88 +3 1021.3 1014.7

 

Местоположение метеостанции Гамов (Приморский край, Россия): широта 42.55 долгота 131.22 высота над уровнем моря 53 м.

В архиве по умолчанию представлена погода в Гамове за последнюю неделю. Архивные данные за месяц целиком и за предыдущие месяцы, начиная с января 2011 года, Вы можете получить, выбрав интересующий диапазон дат из раскрывающегося списка и нажав кнопку "Ввод!".


*Определитесь, кто Вы:
робот инопланетянин человек

Внимание! Время в таблицах - всемирное. Для получения местного времени необходимо прибавить поправку, которая равна 10 ч.

Смотрите также архив погоды в соседних городах и на ближайших метеорологических станциях:

Погода в Посьете (Приморский край, Россия) (36 км)
Погода в Сонбонге (КНДР) (72 км)
Погода в Барабаше (Приморский край, Россия) (74 км)
Погода на Мысе Назимова (Приморский край, Россия) (79 км)
Погода в Владивостоке (Приморский край, Россия) (84 км)
Погода в Находке (Приморский край, Россия) (132 км)
Погода в Многоудобном (Приморский край, Россия) (144 км)
Погода в Чхонджине (КНДР) (144 км)
Погода в Яньцзи (Гирин, Китай) (145 км)
Погода в Тимирязевском (Приморский край, Россия) (158 км)

Пояснения к столбцам:

Ветер - указаны скорость ветра в м/с - средняя за 10 мин, порывы в срок и между сроками (в фигурных скобках) и направление, откуда дует ветер: С - северный, СВ - северо-восточный, В - восточный, ЮВ - юго-восточный, Ю - южный, ЮЗ - юго-западный, З - западный, СЗ - северо-западный.
Видимость - горизонтальная дальность видимости в метрах или километрах. При видимости от 1 до 10 км при отсутствии осадков обычно наблюдается дымка, при ухудшении видимости до 1 км и менее - туман. В сухую погоду видимость может ухудшаться дымом, пылью или мглою.
Явления - указаны атмосферные явления, наблюдавшиеся в срок или в последний час перед сроком; фигурными скобками обозначены явления, наблюдавшиеся между сроками (за 1-3 часа до срока); квадратными скобками обозначены град или гололедные отложения с указанием их диаметра в мм.
Облачность - указаны через наклонную черту общая и нижняя облачность в баллах и высота нижней границы облаков в метрах; квадратными скобками обозначены формы облаков: Ci - перистые, Cs - перисто-слоистые, Cc - перисто-кучевые, Ac - высококучевые, As - высокослоистые, Sc - слоисто-кучевые, Ns - слоисто-дождевые, Cu - кучевые, Cb - кучево-дождевые. Подробнее классификацию облаков см. в Атласе облаков (PDF).
T - Температура воздуха - температура, измеренная на высоте 2 м над землей.
Td - Температура точки росы - температура, при понижении до которой содержащийся в воздухе водяной пар достигнет насыщения.
f - Относительная влажность воздуха - влажноcть воздуха, измеренная на высоте 2 м над землей.
Te - Эффективная температура - температура, которую ощущает одетый по сезону человек в тени. Характеристика душности погоды. При расчете учитывается влияние влажности воздуха и скорости ветра на теплоощущения человека.
Tes - Эффективная температура на солнце - температура, которую ощущает человек, с поправкой на солнечный нагрев. Характеристика знойности погоды. Зависит от высоты солнца над горизонтом, облачности и скорости ветра. Ночью, в пасмурную погоду, а также при ветре 12 м/с и более поправка равна нулю.
P - Атмосферное давление - приведенное к уровню моря атмосферное давление.
Po - Атмосферное давление - измеренное на уровне метеостанции атмосферное давление.
Tmin - Минимальная температура - минимум температуры воздуха на высоте 2 м над землей.
Tmax - Максимальная температура - максимум температуры воздуха на высоте 2 м над землей.
R - Количество осадков - Количество выпавших осадков за период времени, мм. При наведении курсора мыши на число - период времени, за который выпало указанное количество осадков.
R24 - Количество осадков - Количество выпавших осадков за 24 часа, мм.
S - Снежный покров - Высота снежного покрова, см. При наведении курсора мыши на число - состояние снежного покрова и степень покрытия местности в баллах.